Change the Weather History Date:

Tuesday, October 9, 2012

  Actual Average Record
Temperature  
Mean Temperature 52 °F -  
Max Temperature 57 °F 66 °F 86 °F (2007)
Min Temperature 48 °F 46 °F 30 °F (2001)
Degree Days  
Heating Degree Days 12    
Growing Degree Days 2 (Base 50)    
Moisture  
Dew Point 51 °F    
Average Humidity 89    
Maximum Humidity 100    
Minimum Humidity 77    
Precipitation  
Precipitation 0.12 in - - ()
Sea Level Pressure  
Sea Level Pressure 30.16 in    
Wind  
Wind Speed 8 mph (NNE)    
Max Wind Speed 10 mph    
Max Gust Speed -    
Visibility 5 miles    
Events Rain    
Averages and records for this station are not official NWS values.
T = Trace of Precipitation, MM = Missing Value Source: NWS Daily Summary

Daily Weather History Graph

Daily Weather History Graph

Search for Another Location

Airport or City:

Trip Planner

Search our weather history database for the weather conditions in past years. The results will help you decide how hot, cold, wet, or windy it might be!

Date:

Astronomy

Oct. 09, 2012 Rise Set
Actual Time 7:04 AM EDT 6:28 PM EDT
Civil Twilight 6:37 AM EDT 6:55 PM EDT
Nautical Twilight 6:06 AM EDT 7:27 PM EDT
Astronomical Twilight 5:34 AM EDT 7:58 PM EDT
Moon 12:38 AM EDT (10/9) 2:54 PM EDT (10/9)
Length of Visible Light 12h 18m
Length of Day
11h 23m
Last Quarter, 37% of the Moon is Illuminated
Oct 9
Last Quarter
Oct 15
New
Oct 21
First Quarter
Oct 29
Full
Nov 6
Last Quarter

Hourly Weather History & Observations

Time (EDT) Temp. Dew Point Humidity Pressure Visibility Wind Dir Wind Speed Gust Speed Precip Events Conditions
12:54 AM 48.9 °F 43.0 °F 80% 30.22 in - NNE 6.9 mph - 0.00 in Rain Light Rain
1:54 AM 50.0 °F 43.0 °F 77% 30.21 in - NNE 9.2 mph - 0.00 in   Overcast
2:54 AM 50.0 °F 43.0 °F 77% 30.21 in - NNE 10.4 mph - N/A   Overcast
3:54 AM 50.0 °F 44.1 °F 80% 30.20 in - NNE 10.4 mph - N/A   Overcast
4:05 AM 50.0 °F 44.6 °F 82% 30.20 in - NNE 9.2 mph - N/A   Overcast
4:54 AM 50.0 °F 44.1 °F 80% 30.20 in - NNE 9.2 mph - N/A   Overcast
5:54 AM 48.9 °F 46.0 °F 90% 30.20 in - North 6.9 mph - 0.03 in Rain Light Rain
6:54 AM 50.0 °F 46.9 °F 89% 30.19 in - NNE 9.2 mph - 0.05 in Rain Light Rain
7:54 AM 50.0 °F 46.9 °F 89% 30.19 in 10.0 mi NNE 9.2 mph - 0.00 in   Overcast
8:07 AM 50.0 °F 46.4 °F 87% 30.20 in 10.0 mi NNE 6.9 mph - N/A   Overcast
8:14 AM 50.0 °F 46.4 °F 87% 30.20 in 10.0 mi North 6.9 mph - N/A   Overcast
8:54 AM 50.0 °F 48.0 °F 93% 30.20 in 5.0 mi North 9.2 mph - 0.01 in Rain Light Rain
9:54 AM 52.0 °F 48.9 °F 89% 30.20 in 7.0 mi NNE 9.2 mph - 0.00 in   Overcast
10:50 AM 53.6 °F 50.0 °F 88% 30.20 in 7.0 mi NE 9.2 mph - N/A   Overcast
10:54 AM 53.1 °F 50.0 °F 89% 30.20 in 7.0 mi NE 9.2 mph - N/A   Overcast
11:54 AM 55.0 °F 51.1 °F 86% 30.18 in 10.0 mi NE 9.2 mph - N/A   Overcast
12:54 PM 55.9 °F 51.1 °F 84% 30.17 in 10.0 mi NE 9.2 mph - N/A   Overcast
1:19 PM 55.4 °F 51.8 °F 88% 30.16 in 3.0 mi NE 8.1 mph - N/A   Overcast
1:21 PM 55.4 °F 51.8 °F 88% 30.15 in 3.0 mi NE 9.2 mph - N/A   Overcast
1:54 PM 57.0 °F 54.0 °F 89% 30.14 in - NE 8.1 mph - 0.00 in   Overcast
2:05 PM 57.2 °F 53.6 °F 88% 30.14 in 3.0 mi NNE 9.2 mph - N/A   Overcast
2:23 PM 57.2 °F 53.6 °F 88% 30.13 in 3.0 mi NE 6.9 mph - N/A   Overcast
2:51 PM 57.2 °F 53.6 °F 88% 30.13 in 3.0 mi NE 10.4 mph - N/A   Overcast
2:54 PM 57.9 °F 54.0 °F 87% 30.13 in 3.0 mi NE 10.4 mph - N/A   Overcast
3:54 PM 57.0 °F 54.0 °F 89% 30.13 in 3.0 mi NE 5.8 mph - N/A   Overcast
4:54 PM 57.0 °F 53.1 °F 87% 30.12 in 3.0 mi NE 6.9 mph - N/A   Overcast
5:54 PM 57.0 °F 54.0 °F 89% 30.12 in 3.0 mi NE 6.9 mph - N/A   Overcast
6:27 PM 55.4 °F 55.4 °F 100% 30.12 in 3.0 mi North 6.9 mph - N/A   Overcast
6:47 PM 55.4 °F 53.6 °F 94% 30.12 in 1.0 mi NNE 4.6 mph - 0.00 in Rain Light Rain
6:54 PM 55.9 °F 55.0 °F 97% 30.12 in 1.0 mi North 3.5 mph - 0.00 in Rain Light Rain
7:54 PM 55.9 °F 55.0 °F 97% 30.11 in 1.0 mi NE 4.6 mph - 0.01 in   Overcast
8:54 PM 55.9 °F 55.0 °F 97% 30.11 in 1.0 mi NE 6.9 mph - N/A   Overcast
9:54 PM 55.9 °F 55.0 °F 97% 30.10 in - NE 8.1 mph - N/A   Overcast
10:54 PM 55.9 °F 55.0 °F 97% 30.09 in - North 8.1 mph - N/A   Overcast
11:41 PM 55.4 °F 55.4 °F 100% 30.08 in - NE 9.2 mph - 0.01 in Rain Light Rain
11:54 PM 55.9 °F 55.0 °F 97% 30.08 in - NE 8.1 mph - 0.02 in   Overcast